EW2575 Weather Reports


time (UTC)temp
C
wind
direction
speed
KPH
gust
KPH
rain 1hr
cm
rain 24hr
cm
rain mn
cm
humidity
%
barometer
mb
20260508133059 15 269 16.1 22.5 0.00 0.00 0.00 80 1014.7
20260508132538 16 271 12.9 27.4 0.00 0.00 0.00 80 1014.7
20260508132040 16 279 16.1 27.4 0.00 0.00 0.00 77 1014.6
20260508131539 16 271 8.0 22.5 0.00 0.00 0.00 78 1014.6
20260508131038 16 266 14.5 22.5 0.00 0.00 0.00 77 1014.7
20260508130537 16 252 11.3 24.1 0.00 0.00 0.00 78 1014.6
20260508130038 16 269 14.5 24.1 0.00 0.00 0.00 79 1014.7
20260508125538 16 265 12.9 25.7 0.00 0.00 0.00 80 1014.7
20260508125037 16 256 16.1 25.7 0.00 0.00 0.00 80 1014.8
20260508124537 16 242 14.5 25.7 0.00 0.00 0.00 81 1014.9
20260508124036 16 259 17.7 24.1 0.00 0.00 0.00 80 1014.9
20260508123536 15 277 12.9 22.5 0.00 0.00 0.00 81 1015.0
20260508123039 15 263 11.3 17.7 0.00 0.00 0.00 83 1015.0
20260508122536 15 262 8.0 19.3 0.00 0.00 0.00 83 1015.0
20260508122036 15 256 9.7 20.9 0.00 0.00 0.00 83 1015.0
20260508121537 15 269 14.5 24.1 0.00 0.00 0.00 82 1015.1
20260508121036 15 265 16.1 27.4 0.00 0.00 0.00 81 1015.0
20260508120538 16 263 12.9 27.4 0.00 0.00 0.00 79 1015.0
20260508120040 16 271 16.1 24.1 0.00 0.00 0.00 78 1015.0
20260508115536 16 295 16.1 24.1 0.00 0.00 0.00 77 1015.0
20260508115038 16 262 12.9 24.1 0.00 0.00 0.00 78 1015.1
20260508114534 16 294 11.3 24.1 0.00 0.00 0.00 79 1015.1
20260508114034 16 267 17.7 24.1 0.00 0.00 0.00 78 1015.1
20260508113533 15 266 16.1 24.1 0.00 0.00 0.00 78 1015.1
20260508113039 16 342 17.7 24.1 0.00 0.00 0.00 78 1015.1
20260508112532 16 298 9.7 29.0 0.00 0.00 0.00 78 1015.1
20260508112031 16 300 14.5 29.0 0.00 0.00 0.00 79 1015.1
20260508111531 15 286 11.3 22.5 0.00 0.00 0.00 79 1015.2
20260508111031 15 274 11.3 29.0 0.00 0.00 0.00 78 1015.3
20260508110529 16 259 17.7 29.0 0.00 0.00 0.00 78 1015.3
20260508110029 15 264 14.5 24.1 0.00 0.00 0.00 76 1015.2
20260508105528 15 277 11.3 29.0 0.00 0.00 0.00 76 1015.2
20260508105028 15 276 16.1 25.7 0.00 0.00 0.00 75 1015.1
20260508104525 15 271 9.7 19.3 0.00 0.00 0.00 78 1015.1
20260508104024 15 269 9.7 20.9 0.00 0.00 0.00 77 1015.0
20260508103523 15 269 11.3 19.3 0.00 0.00 0.00 76 1014.9
20260508103027 15 282 6.4 19.3 0.00 0.00 0.00 79 1015.0
20260508102521 15 276 9.7 20.9 0.00 0.00 0.00 80 1014.9
20260508102020 15 281 12.9 20.9 0.00 0.00 0.00 80 1015.0
20260508101522 15 250 11.3 19.3 0.00 0.00 0.00 79 1015.0
20260508101020 15 260 11.3 19.3 0.00 0.00 0.00 79 1015.0
20260508100517 15 264 6.4 22.5 0.00 0.00 0.00 79 1015.1
20260508100019 15 282 12.9 19.3 0.00 0.00 0.00 79 1015.0
20260508095516 15 279 9.7 19.3 0.00 0.03 0.00 79 1015.0
20260508095116 15 267 11.3 17.7 0.00 0.03 0.00 79 1015.0
20260508094513 15 263 11.3 20.9 0.00 0.03 0.00 79 1015.0
20260508094014 15 267 11.3 17.7 0.00 0.03 0.00 79 1015.0
20260508093516 15 266 12.9 17.7 0.00 0.03 0.00 78 1014.9
20260508093013 15 251 9.7 20.9 0.00 0.03 0.00 79 1015.0
20260508092512 15 334 9.7 20.9 0.00 0.03 0.00 78 1014.9
20260508092011 15 269 12.9 17.7 0.00 0.03 0.00 78 1014.9
20260508091517 15 252 6.4 14.5 0.00 0.03 0.00 77 1014.9
20260508091009 15 268 1.6 6.4 0.00 0.03 0.00 78 1014.8
20260508090509 15 278 3.2 11.3 0.00 0.03 0.00 78 1014.9
20260508090012 14 302 8.0 11.3 0.00 0.03 0.00 78 1014.8
20260508085505 14 240 4.8 11.3 0.00 0.03 0.00 78 1014.7
20260508085007 14 262 4.8 12.9 0.00 0.03 0.00 78 1014.5
20260508084502 14 267 9.7 12.9 0.00 0.03 0.00 77 1014.5
20260508084104 14 245 4.8 9.7 0.00 0.03 0.00 78 1014.6
20260508083558 14 247 4.8 16.1 0.00 0.03 0.00 78 1014.6
20260508083058 13 274 8.0 16.1 0.00 0.03 0.00 78 1014.6
20260508082556 13 260 6.4 14.5 0.00 0.03 0.00 78 1014.5
20260508082055 13 254 9.7 14.5 0.00 0.03 0.00 78 1014.5
20260508081553 13 275 4.8 14.5 0.00 0.03 0.00 79 1014.5
20260508081052 13 242 8.0 12.9 0.00 0.03 0.00 81 1014.4
20260508080551 13 263 6.4 11.3 0.00 0.03 0.00 83 1014.4
20260508080056 13 153 4.8 8.0 0.00 0.03 0.00 84 1014.4
20260508075549 13 134 4.8 9.7 0.00 0.03 0.00 85 1014.3
20260508075049 12 159 1.6 11.3 0.00 0.03 0.00 86 1014.2
20260508074547 12 126 6.4 12.9 0.00 0.03 0.00 88 1014.2
20260508074046 12 124 8.0 16.1 0.00 0.03 0.00 88 1014.1
20260508073544 12 123 11.3 16.1 0.00 0.03 0.00 89 1014.2
20260508073048 11 106 11.3 17.7 0.00 0.03 0.00 89 1014.1
20260508072542 11 121 11.3 16.1 0.00 0.03 0.00 89 1014.1
20260508072041 11 130 11.3 16.1 0.00 0.03 0.00 90 1014.1
20260508071541 11 123 11.3 14.5 0.00 0.03 0.00 90 1014.1
20260508071039 11 115 11.3 14.5 0.00 0.03 0.00 90 1014.1
20260508070537 11 111 11.3 12.9 0.00 0.03 0.00 89 1014.0
20260508070036 11 111 8.0 11.3 0.00 0.03 0.00 89 1013.9
20260508065537 11 111 6.4 11.3 0.00 0.03 0.00 89 1014.0
20260508065034 12 117 6.4 11.3 0.00 0.03 0.00 89 1014.0
20260508064538 12 89 3.2 4.8 0.00 0.03 0.00 89 1013.9
20260508064034 12 89 1.6 4.8 0.00 0.03 0.00 89 1013.9
20260508063531 12 89 3.2 4.8 0.00 0.03 0.00 89 1013.8
20260508063057 12 89 1.6 4.8 0.00 0.03 0.00 89 1013.7
20260508062531 12 89 1.6 3.2 0.00 0.03 0.00 89 1013.7
20260508062030 12 89 0.0 3.2 0.00 0.03 0.00 89 1013.7
20260508061530 12 89 0.0 3.2 0.00 0.03 0.00 89 1013.7
20260508061029 12 89 0.0 4.8 0.00 0.03 0.00 89 1013.7
20260508060533 12 89 1.6 4.8 0.00 0.03 0.00 89 1013.8
20260508060029 12 89 0.0 3.2 0.00 0.03 0.00 89 1013.8
20260508055528 12 89 1.6 3.2 0.00 0.05 0.00 90 1013.7
20260508055028 12 89 0.0 3.2 0.00 0.05 0.00 90 1013.7
20260508054529 12 89 0.0 1.6 0.00 0.05 0.00 90 1013.7
20260508054028 12 89 0.0 3.2 0.00 0.05 0.00 90 1013.6
20260508053527 12 89 0.0 3.2 0.00 0.05 0.00 90 1013.7
20260508053042 12 89 0.0 3.2 0.00 0.05 0.00 90 1013.6
20260508052528 12 89 0.0 3.2 0.00 0.05 0.00 90 1013.6
20260508052031 12 89 1.6 4.8 0.00 0.05 0.00 90 1013.5
20260508051532 12 89 0.0 6.4 0.00 0.05 0.00 90 1013.5
20260508051027 12 89 3.2 6.4 0.00 0.05 0.00 90 1013.5
20260508050526 12 89 3.2 6.4 0.00 0.05 0.00 90 1013.4
20260508050030 12 89 3.2 6.4 0.00 0.05 0.00 90 1013.3
20260508045526 12 89 3.2 4.8 0.00 0.05 0.00 90 1013.4
20260508045026 12 89 1.6 4.8 0.00 0.05 0.00 90 1013.4
20260508044526 12 89 0.0 4.8 0.00 0.05 0.00 90 1013.3
20260508044024 12 89 3.2 6.4 0.00 0.05 0.00 90 1013.3
20260508043523 12 89 3.2 6.4 0.00 0.05 0.00 90 1013.3
20260508043026 12 89 3.2 4.8 0.00 0.05 0.00 89 1013.3
20260508042522 12 89 3.2 4.8 0.00 0.05 0.00 89 1013.4
20260508042026 12 211 1.6 3.2 0.00 0.05 0.00 89 1013.3
20260508041522 12 211 1.6 4.8 0.00 0.05 0.00 92 1013.3
20260508041021 12 211 1.6 4.8 0.00 0.05 0.00 89 1013.3
20260508040521 12 211 3.2 4.8 0.00 0.05 0.00 90 1013.3
20260508040020 12 211 3.2 4.8 0.00 0.05 0.00 90 1013.3
20260508035520 12 211 3.2 4.8 0.00 0.05 0.00 90 1013.4
20260508035021 12 211 3.2 4.8 0.00 0.05 0.00 90 1013.4
20260508034525 12 211 1.6 3.2 0.00 0.05 0.00 90 1013.5
20260508034017 12 210 1.6 4.8 0.00 0.05 0.00 90 1013.5
20260508033519 12 210 1.6 4.8 0.00 0.05 0.00 91 1013.5
20260508033024 12 244 0.0 3.2 0.00 0.05 0.00 91 1013.4
20260508032517 12 244 1.6 3.2 0.00 0.05 0.00 91 1013.5
20260508032017 12 244 0.0 4.8 0.00 0.05 0.00 91 1013.5
20260508031518 12 244 1.6 4.8 0.00 0.05 0.00 92 1013.6
20260508031015 12 244 0.0 6.4 0.00 0.05 0.00 92 1013.6
20260508030515 12 229 3.2 6.4 0.00 0.05 0.00 92 1013.6
20260508030122 12 217 3.2 6.4 0.00 0.05 0.00 92 1013.6
20260508025515 12 198 3.2 4.8 0.00 0.05 0.00 92 1013.6
20260508025015 13 198 1.6 4.8 0.00 0.05 0.00 92 1013.6
20260508024521 13 198 1.6 4.8 0.00 0.05 0.00 92 1013.7
20260508024013 13 198 1.6 4.8 0.00 0.05 0.00 92 1013.7
20260508023513 13 224 0.0 8.0 0.00 0.05 0.00 93 1013.7
20260508023014 13 189 3.2 8.0 0.00 0.05 0.00 93 1013.8
20260508022513 13 211 1.6 6.4 0.00 0.05 0.00 93 1013.7
20260508022012 13 182 3.2 6.4 0.00 0.05 0.00 92 1013.7
20260508021511 13 273 3.2 6.4 0.00 0.05 0.00 92 1013.8
20260508021013 13 273 3.2 4.8 0.00 0.05 0.00 92 1013.9
20260508020508 13 273 0.0 3.2 0.00 0.05 0.00 92 1014.0
20260508020008 13 273 0.0 3.2 0.00 0.05 0.00 93 1014.0
20260508015507 13 273 1.6 4.8 0.00 0.05 0.00 93 1014.1
20260508015007 13 273 1.6 4.8 0.00 0.05 0.00 93 1014.2
20260508014509 13 273 3.2 4.8 0.00 0.05 0.00 93 1014.3
20260508014006 13 273 0.0 4.8 0.00 0.05 0.00 93 1014.3
20260508013505 13 273 3.2 4.8 0.00 0.05 0.00 93 1014.3
20260508013005 13 273 1.6 3.2 0.00 0.05 0.00 93 1014.3
20260508012503 13 273 0.0 3.2 0.00 0.05 0.00 93 1014.4
20260508012005 13 273 0.0 4.8 0.00 0.05 0.00 93 1014.4
20260508011502 13 273 1.6 4.8 0.00 0.05 0.00 93 1014.5
20260508011053 13 273 0.0 3.2 0.00 0.05 0.00 93 1014.5
20260508010553 13 273 0.0 3.2 0.00 0.05 0.00 93 1014.5
20260508010101 13 273 1.6 3.2 0.00 0.05 0.00 93 1014.6
20260508005555 13 273 0.0 0.0 0.00 0.05 0.00 93 1014.6
20260508005052 13 273 0.0 0.0 0.00 0.05 0.00 93 1014.6
20260508004551 14 273 0.0 0.0 0.00 0.05 0.00 93 1014.7
20260508004050 13 273 0.0 0.0 0.00 0.05 0.00 93 1014.7
20260508003549 14 273 0.0 0.0 0.00 0.05 0.00 93 1014.7
20260508003100 14 273 0.0 0.0 0.00 0.05 0.00 93 1014.8
20260508002549 14 273 0.0 4.8 0.00 0.05 0.00 93 1014.8
20260508002049 14 273 0.0 9.7 0.00 0.05 0.00 93 1014.8
20260508001553 14 273 4.8 9.7 0.00 0.05 0.00 93 1014.9
20260508001148 14 273 3.2 4.8 0.00 0.05 0.00 93 1014.8
20260508000548 14 273 0.0 4.8 0.00 0.05 0.00 92 1014.9
20260508000048 14 273 0.0 1.6 0.00 0.05 0.00 92 1015.0
20260507235548 14 273 0.0 0.0 0.00 0.05 0.00 92 1014.9
20260507235046 14 273 0.0 0.0 0.00 0.05 0.00 92 1014.9
20260507234547 14 273 0.0 0.0 0.00 0.05 0.00 92 1014.9
20260507234051 14 273 0.0 0.0 0.00 0.05 0.00 92 1014.9
20260507233546 14 273 0.0 0.0 0.00 0.05 0.00 92 1015.0
20260507233046 14 273 0.0 0.0 0.00 0.05 0.00 92 1014.9
20260507232545 14 273 0.0 0.0 0.00 0.05 0.00 92 1014.9
20260507232046 14 273 0.0 0.0 0.00 0.05 0.00 92 1014.8
20260507231545 14 273 0.0 0.0 0.00 0.05 0.00 92 1014.9
20260507231043 14 273 0.0 0.0 0.00 0.05 0.00 92 1014.9
20260507230544 14 273 0.0 3.2 0.00 0.05 0.00 92 1015.0
20260507230058 14 273 0.0 4.8 0.00 0.05 0.00 92 1014.9
20260507225543 14 273 3.2 4.8 0.00 0.08 0.05 92 1015.0
20260507225043 14 273 1.6 4.8 0.00 0.08 0.05 92 1015.0
20260507224543 14 273 0.0 3.2 0.00 0.08 0.05 92 1014.9
20260507224042 14 273 1.6 4.8 0.00 0.08 0.05 92 1015.0
20260507223542 14 273 3.2 4.8 0.00 0.08 0.05 92 1015.0
20260507223130 14 273 0.0 3.2 0.00 0.08 0.05 92 1014.9
20260507222542 14 273 1.6 4.8 0.00 0.08 0.05 92 1014.9
20260507222042 14 273 0.0 3.2 0.00 0.08 0.05 92 1014.9
20260507221542 14 273 1.6 4.8 0.00 0.08 0.05 92 1014.8
20260507221041 14 273 1.6 4.8 0.00 0.08 0.05 92 1014.8
20260507220541 14 273 1.6 4.8 0.00 0.08 0.05 92 1014.8
20260507220040 14 273 1.6 6.4 0.00 0.08 0.05 92 1014.8
20260507215541 14 273 3.2 6.4 0.00 0.08 0.05 91 1014.8
20260507215041 14 273 1.6 6.4 0.00 0.08 0.05 91 1014.8
20260507214551 14 273 3.2 9.7 0.00 0.08 0.05 91 1014.8
20260507214040 14 273 3.2 6.4 0.00 0.08 0.05 91 1014.8
20260507213541 14 273 0.0 0.0 0.00 0.08 0.05 91 1014.8
20260507213041 14 273 0.0 0.0 0.00 0.08 0.05 90 1014.7
20260507212539 14 273 0.0 0.0 0.00 0.08 0.05 90 1014.7
20260507212040 14 273 0.0 0.0 0.00 0.08 0.05 90 1014.6
20260507211540 14 273 0.0 0.0 0.00 0.08 0.05 90 1014.6
20260507211039 14 273 0.0 0.0 0.00 0.08 0.05 90 1014.5
20260507210539 14 273 0.0 0.0 0.00 0.08 0.05 90 1014.5
20260507210042 14 273 0.0 0.0 0.00 0.08 0.05 90 1014.4
20260507205539 14 273 0.0 0.0 0.00 0.08 0.05 89 1014.4
20260507205040 14 273 0.0 0.0 0.00 0.08 0.05 89 1014.4
20260507204542 14 273 0.0 0.0 0.00 0.08 0.05 89 1014.4
20260507204038 15 273 0.0 0.0 0.00 0.08 0.05 89 1014.4
20260507203538 15 273 0.0 0.0 0.00 0.08 0.05 89 1014.4
20260507203041 15 273 0.0 0.0 0.00 0.08 0.05 89 1014.3
20260507202537 15 273 0.0 0.0 0.00 0.08 0.05 89 1014.2
20260507202040 15 273 0.0 0.0 0.00 0.08 0.05 89 1014.2
20260507201541 15 273 0.0 0.0 0.00 0.08 0.05 89 1014.1
20260507201037 15 273 0.0 0.0 0.00 0.08 0.05 89 1014.1
20260507200537 15 273 0.0 0.0 0.00 0.08 0.05 89 1014.0
20260507200051 15 273 0.0 0.0 0.00 0.08 0.05 89 1014.0
20260507195536 15 273 0.0 1.6 0.00 0.08 0.05 89 1013.9
20260507195039 15 273 0.0 3.2 0.00 0.08 0.05 89 1013.9
20260507194537 15 273 0.0 6.4 0.00 0.08 0.05 89 1013.9
20260507194036 15 273 3.2 9.7 0.00 0.08 0.05 88 1013.8
20260507193536 15 275 4.8 12.9 0.00 0.08 0.05 88 1013.8
20260507193044 15 331 6.4 12.9 0.00 0.08 0.05 88 1013.7
20260507192537 15 294 4.8 8.0 0.00 0.08 0.05 88 1013.6
20260507192037 15 271 4.8 12.9 0.00 0.08 0.05 87 1013.6
20260507191536 15 244 6.4 12.9 0.00 0.08 0.05 88 1013.6
20260507191037 15 254 6.4 12.9 0.00 0.08 0.05 88 1013.6
20260507190534 15 265 6.4 12.9 0.00 0.08 0.05 87 1013.6
20260507190038 15 255 8.0 12.9 0.00 0.08 0.05 88 1013.6
20260507185534 15 252 8.0 16.1 0.00 0.08 0.05 88 1013.6
20260507185036 15 237 11.3 16.1 0.00 0.08 0.05 87 1013.6
20260507184534 15 225 8.0 17.7 0.00 0.08 0.05 87 1013.5
20260507184033 15 262 8.0 16.1 0.00 0.08 0.05 87 1013.5
20260507183537 15 238 11.3 16.1 0.00 0.08 0.05 87 1013.4
20260507183038 15 237 8.0 14.5 0.00 0.08 0.05 87 1013.4
20260507182534 15 255 8.0 14.5 0.00 0.08 0.05 87 1013.3
20260507182034 15 242 9.7 14.5 0.00 0.08 0.05 87 1013.3
20260507181535 15 225 9.7 14.5 0.00 0.08 0.05 87 1013.3
20260507181033 15 247 11.3 14.5 0.00 0.08 0.05 87 1013.4
20260507180535 15 269 8.0 16.1 0.00 0.08 0.05 87 1013.3
20260507180131 15 257 9.7 17.7 0.00 0.08 0.05 87 1013.2
20260507175533 15 236 11.3 17.7 0.00 0.08 0.05 87 1013.2
20260507175031 15 269 9.7 20.9 0.00 0.08 0.05 86 1013.2
20260507174530 16 279 11.3 24.1 0.00 0.08 0.05 86 1013.2
20260507174031 16 272 14.5 20.9 0.00 0.08 0.05 86 1013.1
20260507173529 16 284 11.3 22.5 0.00 0.08 0.05 85 1013.1
20260507173029 16 266 12.9 25.7 0.00 0.08 0.05 85 1012.9
20260507172530 16 262 11.3 25.7 0.00 0.08 0.05 85 1013.1
20260507172031 16 261 14.5 24.1 0.00 0.08 0.05 84 1013.1
20260507171529 16 254 11.3 22.5 0.00 0.08 0.05 83 1013.1
20260507171029 17 266 16.1 24.1 0.00 0.08 0.05 82 1013.0
20260507170531 17 238 14.5 24.1 0.00 0.08 0.05 84 1012.9
20260507170029 16 202 16.1 29.0 0.00 0.08 0.05 84 1013.0
20260507165528 17 267 17.7 29.0 0.00 0.08 0.05 83 1013.0
20260507165028 17 263 17.7 24.1 0.00 0.08 0.05 82 1012.8
20260507164528 17 253 11.3 25.7 0.00 0.08 0.05 82 1012.9
20260507164028 17 246 16.1 25.7 0.00 0.08 0.05 82 1012.9
20260507163531 17 270 12.9 19.3 0.00 0.08 0.05 83 1012.9
20260507163029 17 266 11.3 24.1 0.00 0.08 0.05 83 1013.0
20260507162526 17 279 12.9 25.7 0.00 0.08 0.05 83 1013.1
20260507162030 17 263 12.9 25.7 0.00 0.08 0.05 83 1013.3
20260507161530 17 279 9.7 24.1 0.00 0.08 0.05 84 1013.2
20260507161025 17 276 11.3 24.1 0.00 0.08 0.05 84 1013.2
20260507160525 17 263 14.5 24.1 0.00 0.08 0.05 85 1013.3
20260507160024 16 269 14.5 24.1 0.00 0.08 0.05 85 1013.4
20260507155524 16 230 12.9 20.9 0.00 0.13 0.05 85 1013.5
20260507155026 17 271 12.9 20.9 0.00 0.13 0.05 86 1013.5
20260507154528 16 265 9.7 20.9 0.00 0.13 0.05 86 1013.7
20260507154024 16 263 16.1 24.1 0.00 0.13 0.05 86 1013.7
20260507153523 16 232 12.9 24.1 0.00 0.13 0.05 86 1013.8
20260507153024 16 267 14.5 20.9 0.00 0.13 0.05 85 1013.9
20260507152526 16 265 11.3 17.7 0.00 0.13 0.05 86 1013.9
20260507152023 16 248 8.0 17.7 0.00 0.13 0.05 85 1014.0
20260507151525 16 242 9.7 17.7 0.00 0.13 0.05 86 1014.1
20260507151022 16 323 6.4 16.1 0.00 0.13 0.05 87 1014.1
20260507150521 16 270 9.7 22.5 0.00 0.13 0.05 87 1014.2
20260507150021 16 243 12.9 22.5 0.00 0.13 0.05 87 1014.2
20260507145520 16 246 11.3 16.1 0.00 0.23 0.05 87 1014.2
20260507145021 16 239 6.4 14.5 0.00 0.23 0.05 87 1014.3
20260507144527 16 261 6.4 17.7 0.00 0.23 0.05 87 1014.4
20260507144020 16 264 9.7 19.3 0.00 0.23 0.05 87 1014.5
20260507143520 16 279 9.7 19.3 0.00 0.23 0.05 87 1014.6
20260507143021 16 274 8.0 16.1 0.00 0.23 0.05 87 1014.5
20260507142521 16 290 9.7 16.1 0.00 0.23 0.05 88 1014.6
20260507142021 16 286 9.7 16.1 0.00 0.23 0.05 88 1014.6
20260507141521 16 303 4.8 17.7 0.00 0.23 0.05 89 1014.6
20260507141019 16 260 9.7 19.3 0.00 0.23 0.05 89 1014.6
20260507140523 15 264 9.7 20.9 0.00 0.23 0.05 89 1014.5
20260507140019 15 250 11.3 20.9 0.00 0.23 0.05 89 1014.6
20260507135524 15 279 11.3 20.9 0.00 0.23 0.05 89 1014.6
20260507135021 15 271 14.5 20.9 0.00 0.23 0.05 89 1014.8
20260507134518 15 272 14.5 20.9 0.00 0.23 0.05 89 1014.8
20260507134017 15 263 9.7 20.9 0.00 0.23 0.05 89 1014.8
20260507133521 16 254 14.5 25.7 0.00 0.23 0.05 89 1014.9